Location: Newark
(45.8667°N, 9.7333°E)
Time: 00:25:45
(UTC+00:00)

Vanguard 3 - Pass Details

Date: 27 January 2020
Orbit: 508 x 3263 km, 33.3° (Epoch: 20 February)

Event Time Altitude Azimuth Distance (km) Brightness Sun altitude
Rises 22:19:27 0° 277° (W) 6,911 12.2 -58.5°
Reaches altitude 10° 22:25:55 10° 265° (W) 5,516 11.5 -59.2°
Enters shadow 22:30:31 17° 252° (WSW) 4,598 10.9 -59.6°
Maximum altitude 22:36:14 22° 224° (SW) 3,771 - -60.1°
Drops below altitude 10° 22:43:44 10° 179° (S) 3,854 - -60.6°
Sets 22:47:15 0° 164° (SSE) 4,421 - -60.9°
